Simultaneous Nadir Overpasses (SNOs) Predictions

Prediction of SNOs between NOAA-20 and METOP-C Satellite Orbit:

Table of predicted SNOs for the next 14.0 days since TLE Epoch: 8/21/2021
Index Date (NOAA-20) Time (NOAA-20) Lat,Lon (NOAA-20) SZA (NOAA-20 ) Date (METOP-C) Time (METOP-C) Lat,Lon (METOP-C) SZA (METOP-C ) Distance(km) Time Diff (sec)
1 08/21/2021 04:26:44 72.59, 105.33 60.67 08/21/2021 04:25:42 72.57, 105.29 60.67 2.35 62
2 08/21/2021 05:17:28 -72.60, -87.38 119.30 08/21/2021 05:16:22 -72.62, -87.28 119.28 3.71 66
3 08/21/2021 06:08:14 72.59, 79.95 60.70 08/21/2021 06:07:03 72.60, 80.00 60.72 2.02 71
4 08/21/2021 06:58:58 -72.61,-112.77 119.27 08/21/2021 06:57:44 -72.59,-112.67 119.27 3.39 74
5 08/21/2021 07:49:41 72.44, 54.87 60.57 08/21/2021 07:48:28 72.42, 54.31 60.59 18.93 73
6 08/21/2021 08:40:23 -72.36,-137.64 119.52 08/21/2021 08:39:10 -72.37,-138.46 119.45 27.74 73
7 08/21/2021 09:31:05 72.14, 30.08 60.26 08/21/2021 09:29:55 72.14, 28.43 60.36 56.60 70
8 08/21/2021 10:21:47 -72.06,-162.43 119.82 08/21/2021 10:20:38 -72.04,-164.44 119.72 68.88 69
9 08/21/2021 11:12:28 71.84, 5.28 59.96 08/21/2021 11:11:22 71.81, 2.46 60.10 97.99 66



Historial Predications of SNOs between NOAA-20 and METOP-C
